Regional Weather Roundup
Issued by NWS

Home | Current Version | Previous Version | Text Only | Print | Product List | Glossary Off
Versions: 1 2 3 4 5 6 7 8 9 10 11 12 13 14 15 16 17 18 19 20 21 22 23 24 25 26 27 28 29 30 31 32 33 34 35 36 37 38 39 40 41 42 43 44 45 46 47 48 49 50

000
ASUS43 KMKX 262007
RWRWI

WISCONSIN REGIONAL WEATHER ROUNDUP
NATIONAL WEATHER SERVICE MILWAUKEE/SULLIVAN WI
300 PM CDT TUE MAY 26 2015

NOTE: "FAIR" INDICATES FEW OR NO CLOUDS BELOW 12,000 FEET WITH NO
SIGNIFICANT WEATHER AND/OR OBSTRUCTIONS TO VISIBILITY.

WIZ001-002-006>008-014>016-023>028-262100-
NORTHWEST WISCONSIN

CITY           SKY/WX    TMP DP  RH WIND       PRES   REMARKS
SUPERIOR ARPT  CLOUDY    56  52  85 NE7       29.83F
ASHLAND        CLOUDY    57  52  83 E9        29.84S
HAYWARD        LGT RAIN  57  53  86 N9        29.80F
SIREN          DRIZZLE   57  55  91 NE12      29.79F
CUMBERLAND     LGT RAIN  59  57  94 N9        29.77F
RICE LAKE      RAIN      63  60  90 N12       29.77F
CHETEK         DRIZZLE   65  63  94 N3        29.75F
LADYSMITH      LGT RAIN  65  61  89 NE3       29.78F
EAU CLAIRE     NOT AVBL
MENOMONIE      LGT RAIN  66  62  87 NE5       29.74S
NEW RICHMOND   LGT RAIN  60  60 100 N8        29.77S
OSCEOLA        LGT RAIN  59  59 100 NW7       29.80S
$$

WIZ003>005-009-010-017-018-262100-
NORTH CENTRAL WISCONSIN

CITY           SKY/WX    TMP DP  RH WIND       PRES   REMARKS
MANITOWISH WTR CLOUDY    63  60  90 NE6       29.80F
ARBOR VITAE    LGT RAIN  67  62  83 CALM      29.80F
WOODRUFF       LGT RAIN  67  62  83 CALM      29.80F
RHINELANDER    LGT RAIN  67  62  84 S5        29.79F
EAGLE RIVER    LGT RAIN  69  58  68 CALM      29.79F
LAND O LAKES   CLOUDY    68  59  73 CALM      29.81F
PHILLIPS       LGT RAIN  65  62  91 CALM      29.77F
TOMAHAWK       RAIN      64  61  92 SE3       29.79F
MEDFORD        LGT RAIN  62  60  94 NE8       29.74F
MERRILL        LGT RAIN  62  61  95 CALM      29.79F
$$

WIZ029-030-035-036-043>047-262100-
CENTRAL WISCONSIN

CITY           SKY/WX    TMP DP  RH WIND       PRES   REMARKS
WAUSAU         LGT RAIN  64  62  93 N7        29.72F
MOSINEE        LGT RAIN  63  63 100 N9        29.73F
MARSHFIELD     LGT RAIN  66  60  81 E13       29.70F
STEVENS POINT  RAIN      62  61  97 NE12      29.73F
WAUPACA        RAIN      71  70  98 E8        29.72F
WAUTOMA        RAIN      68  68 100 E9        29.70F FOG
WISC RAPIDS    RAIN      64  60  87 E8        29.71F
CAMP DOUGLAS   LGT RAIN  64  64 100 NE8       29.67F FOG
$$

WIZ011>013-019>022-031-037>040-048>050-262100-
NORTHEAST WISCONSIN

CITY           SKY/WX    TMP DP  RH WIND       PRES   REMARKS
ANTIGO         LGT RAIN  63  62  95 N5        29.79F
SHAWANO        RAIN      68  62  82 NE7       29.76F
OCONTO         CLOUDY    66  65  97 SE9       29.77F
STURGEON BAY   CLOUDY    63  59  88 S9G18     29.81F
GREEN BAY      LGT RAIN  69  65  86 SE17      29.75F FOG
MANITOWOC      LGT RAIN  55  54  94 SE8       29.76F FOG
APPLETON       LGT RAIN  68  66  94 SE14      29.74F FOG
CLINTONVILLE   LGT RAIN  68  63  83 E5        29.73F
OSHKOSH        RAIN      66  64  93 E12G22    29.69F FOG
$$

WIZ032>034-041-042-053>061-262100-
SOUTHWEST WISCONSIN

CITY           SKY/WX    TMP DP  RH WIND       PRES   REMARKS
LA CROSSE      HVY RAIN  66  61  84 NE7       29.65F
SPARTA         CLOUDY    66  61  82 E8        29.68F
VIROQUA        CLOUDY    64  64 100 E13       29.67F
BOSCOBEL       CLOUDY    73  63  70 S7        29.65F
PRAIRIE DU CHI LGT RAIN  67  65  96 S9        29.64F
PLATTEVILLE    CLOUDY    69  65  85 S16       29.68F
$$

WIZ056-057-062-063-064-067-068-262100-
SOUTH CENTRAL WISCONSIN

CITY           SKY/WX    TMP DP  RH WIND       PRES   REMARKS
REEDSBURG      CLOUDY    66  65  96 CALM      29.68F
BARABOO/DELLS  CLOUDY    67  65  94 E10       29.68F
LONE ROCK      NOT AVBL
MINERAL POINT  PTSUNNY   72  63  73 S15G24    29.69F
MADISON        PTSUNNY   72  61  68 S13G18    29.68F
MIDDLETON      CLOUDY    73  64  73 S21       29.69F
WATERTOWN      CLOUDY    72  72  98 S14G22    29.69F
MONROE         CLOUDY    72  63  73 S16G24    29.71F
JANESVILLE     PTSUNNY   77  63  61 SW23G29   29.70F
$$

WIZ051-052-058>065-066-070>072-262100-
SOUTHEAST WISCONSIN

CITY           SKY/WX    TMP DP  RH WIND       PRES   REMARKS
MILWAUKEE      CLOUDY    68  66  93 S8        29.73F FOG
WAUKESHA       PTSUNNY   70  64  83 S16       29.74F
MILWAUKEE/TIMM CLOUDY    66  63  88 S10G17    29.75F FOG
RACINE         CLOUDY    64  62  93 S9        29.76F FOG
BURLINGTON     CLOUDY    71  64  78 S17G26    29.74F
KENOSHA        CLOUDY    74  66  76 SW18G26   29.75S
FOND DU LAC    CLOUDY    67  63  87 SE17G26   29.69F
SHEBOYGAN      LGT RAIN  62  61  96 SE12      29.73F FOG
WEST BEND      CLOUDY    64  63  94 SE13G18   29.73F FOG
JUNEAU         CLOUDY    68  66  93 SE20G25   29.70F
$$

LSZ147-162-262100-
LAKE SUPERIOR

STATION/POSITION TIME  TEMP    WIND        PRES    WAVE
                       AIR SEA DIR/SP/G            HT/PER
                 (UTC) (F)     (DEG/KT/KT) (MB)    (FT/S)
W MID LAKE BUOY  1850   41 37  310/  6/  6   N/A     1
DEVILS ISLAND    1900   48     340/  6/  6   N/A
PORT WING        1900   47      20/  6/  7   N/A
SAXON HARBOR     1900   49        CALM       N/A
$$

LMZ867-665-643>646-262100-
LAKE MICHIGAN

STATION/POSITION TIME  TEMP    WIND        PRES    WAVE
                       AIR SEA DIR/SP/G            HT/PER
                 (UTC) (F)     (DEG/KT/KT) (MB)    (FT/S)
CHAMBERS ISLAND  1900   63     140/  9/ 18   N/A
N MID LAKE BUOY  1850   45 37  220/ 10/ 12   N/A     2/ 5
NORTHPORT PIER   1900   56     150/ 10/ 17   N/A
SISTER BAY       1918   63     190/ 14/ 19   N/A
ALGOMA LAKESHORE 1938          200/  8/  9   N/A
KEWAUNEE LAKESHO 1900   50     180/ 10/ 12   N/A
SHEBOYGAN LAKESH 1900   49      90/  3/  4   N/A
PORT WASHINGTON  1900   54     140/ 14/ 17 1088.0
ATWATER BUOY     1900   53 47  170/  6/ 10   N/A
MILWAUKEE LAKESH 1900   54     140/  3/  7   N/A
S MID LAKE BUOY  1850   49 38  120/ 10/ 12   N/A     1
KENOSHA   LAKESH 1900   59     160/ 17/ 18 1078.0
$$

TC  - TEMPERATURE IN CELSIUS
VSB - VISIBILITY IN STATUTE MILES
WCI - WIND CHILL INDEX
HX  - HEAT INDEX



USA.gov is the U.S. government's official web portal to all federal, state and local government web resources and services.